Find Starlink 32328

NORAD ID: 62489 Int'l Des: 2025-003 Owner: SPXS Country: US Constellation: starlink operational
LEOCIRCULAR

リアルタイム位置

3D地球を読み込み中...

Starlink 32328について

説明を読み込み中...

次回通過

Passes for default location (London). Set your location on the main map for personalized predictions.

高度履歴

Loading altitude history...

軌道要素

1 62489U 25003C 26124.62905458 .00029273 00000-0 10686-2 0 9999
2 62489 43.0027 333.3219 0000962 251.9450 108.1297 15.27595034 75229
Epoch: May 4, 2026 • Age: 5 hours

現在のステータス

高度 482.0 km
速度 7.63 km/s
衛星直下点 13.15°N, 32.68°W
打ち上げ日 Jan 6, 2025
運用期間 1.3 years
タイプ internet

技術仕様

分類 Payload
質量 730.00 kg
乾燥質量 700.00 kg
総質量 730.00 kg
長さ 0.30 m
直径 4.10 m
スパン 29.00 m
形状 Box + pan
製造者 SPXS
バスタイプ Starlink V2M
フェーズステータス In Orbit
所有者/国 SPXS/US

Most Searched